(262361) = 2004 GQ56 = 2006 TC84

Discovered at Kitt Peak on 2006-10-13 by Spacewatch.

Orbit

Orbit type: Main Belt

Note: WebGL enabled browser required.

epoch2023-09-13.0
epoch JD2460200.5
perihelion date2022-06-19.12505
perihelion JD2459749.62505
argument of perihelion (°)280.02360
ascending node (°)12.85454
inclination (°)11.37913
eccentricity0.1437042
perihelion distance (AU)2.7272104
Tisserand w.r.t. Jupiter3.2
ΔV w.r.t. Earth (km/sec)10.9
semimajor axis (AU)3.1848928
mean anomaly (°)78.18397
mean daily motion (°/day)0.17340500
aphelion distance (AU)3.643
period (years)5.68
P-vector [x]0.38446601
P-vector [y]-0.75070920
P-vector [z]-0.53723513
Q-vector [x]0.92209497
Q-vector [y]0.33997140
Q-vector [z]0.18482507
absolute magnitude15.72
phase slope0.15
uncertainty0
referenceMPEC 2023-X62
observations used274
oppositions16
arc length (days)9407
first opposition used1998
last opposition used2023
residual rms (arc-secs)0.71
perturbers coarse indicatorM-v
perturbers precise indicator003Ek
first observation date used1998-03-03.0
last observation date used2023-12-04.0
computer nameMPCLINUX
JD of orbit computation2456731.628086
perihelion JD uncertainty (days)1.9064E-04
argument of perihelion uncertainty (°)3.9562E-05
ascending node uncertainty (°)2.5175E-05
inclination uncertainty (°)8.1043E-06
eccentricity uncertainty 4.3179E-08
perihelion distance uncertainty (AU)1.3172E-07
Minimum Orbit Intersection Distances (in AU)
for orbit epoch: 2460200.5, reference: E2023-X62
Mercury2.27781
Venus2.01157
Earth1.74101
Mars1.34178
Jupiter1.73318
Saturn5.55861
Uranus14.9732
Neptune26.5187

Observations

286 total observations over interval: 1998 03 03.44172 – 2023 12 04.260813
These data are available for download (format description).

Date (UT) J2000 RA J2000 Dec Magn Location Ref
1998 03 03.44172 12 16 59.89 +03 37 45.5 21.2 V 691 – Steward Observatory, Kitt Peak-Spacewatch MPS 286940
1998 03 03.46247 12 16 59.01 +03 37 48.3 21.2 V 691 – Steward Observatory, Kitt Peak-Spacewatch MPS 286940
1998 03 03.48328 12 16 58.12 +03 37 51.6 20.7 V 691 – Steward Observatory, Kitt Peak-Spacewatch MPS 286940
2000 09 20.33694 01 01 39.72 +05 13 18.5 20.8 V 691 – Steward Observatory, Kitt Peak-Spacewatch MPS 286940
2000 09 20.35803 01 01 38.72 +05 13 16.3 20.7 V 691 – Steward Observatory, Kitt Peak-Spacewatch MPS 286940
2000 09 20.37908 01 01 37.72 +05 13 14.4 21.0 V 691 – Steward Observatory, Kitt Peak-Spacewatch MPS 286940
2000 10 03.24906 00 51 03.69 +04 50 43.6 19.3   704 – Lincoln Laboratory ETS, New Mexico MPS 313325
2000 10 03.26469 00 51 02.86 +04 50 42.8 19.7   704 – Lincoln Laboratory ETS, New Mexico MPS 313325
2000 10 03.28021 00 51 02.02 +04 50 39.7 19.8   704 – Lincoln Laboratory ETS, New Mexico MPS 313325
2003 01 24.35344 09 45 33.94 +27 39 38.1 20.6 R 644 – Palomar Mountain/NEAT MPS 362716
2003 02 01.29529 09 39 06.53 +28 08 20.1 20.2 R 644 – Palomar Mountain/NEAT MPS 362716
2003 02 01.31625 09 39 05.46 +28 08 24.0 19.6 R 644 – Palomar Mountain/NEAT MPS 362716
2003 02 01.33721 09 39 04.39 +28 08 28.6 19.9 R 644 – Palomar Mountain/NEAT MPS 362716
2003 02 19.31514 09 23 21.76 +28 50 35.1 20.7 R 644 – Palomar Mountain/NEAT MPS 362716
2003 02 19.32071 09 23 21.52 +28 50 36.7   644 – Palomar Mountain/NEAT MPS 362716
2004 04 13.32055 13 25 26.44 -12 16 38.7 20.0 V 691 – Steward Observatory, Kitt Peak-Spacewatch MPS 105245
2004 04 13.34935 13 25 24.90 -12 16 36.0 20.1 V 691 – Steward Observatory, Kitt Peak-Spacewatch MPS 105245
2004 04 13.37830 13 25 23.36 -12 16 33.3 20.2 V 691 – Steward Observatory, Kitt Peak-Spacewatch MPS 105245
2004 04 19.23388 13 20 20.01 -12 06 59.1 20.0 V 691 – Steward Observatory, Kitt Peak-Spacewatch MPS 105245
2004 04 19.26118 13 20 18.58 -12 06 56.4 19.9 V 691 – Steward Observatory, Kitt Peak-Spacewatch MPS 105245
2004 04 19.28794 13 20 17.15 -12 06 53.6 20.0 V 691 – Steward Observatory, Kitt Peak-Spacewatch MPS 105245
2006 10 13.24158 02 21 02.41 +19 53 10.5   691 – Steward Observatory, Kitt Peak-Spacewatch MPS 183182
2006 10 13.25900 02 21 01.57 +19 53 10.1   691 – Steward Observatory, Kitt Peak-Spacewatch MPS 183182
2006 10 13.27640 02 21 00.69 +19 53 09.5   691 – Steward Observatory, Kitt Peak-Spacewatch MPS 183182
2006 10 17.24916 02 17 43.54 +19 50 20.7 20.3 V 691 – Steward Observatory, Kitt Peak-Spacewatch MPS 183182
2006 10 17.26658 02 17 42.64 +19 50 19.9 20.4 V 691 – Steward Observatory, Kitt Peak-Spacewatch MPS 183182
2006 10 17.28400 02 17 41.73 +19 50 19.1 20.6 V 691 – Steward Observatory, Kitt Peak-Spacewatch MPS 183182
2006 10 21.29812 02 14 14.57 +19 45 57.0 20.4 V 691 – Steward Observatory, Kitt Peak-Spacewatch MPS 184226
2006 10 21.31896 02 14 13.46 +19 45 55.4 20.5 V 691 – Steward Observatory, Kitt Peak-Spacewatch MPS 184226
2006 10 21.33637 02 14 12.50 +19 45 53.9 20.5 V 691 – Steward Observatory, Kitt Peak-Spacewatch MPS 184226
2006 10 31.26702 02 05 27.80 +19 29 34.3   691 – Steward Observatory, Kitt Peak-Spacewatch MPS 185658
2006 10 31.28441 02 05 26.85 +19 29 32.3   691 – Steward Observatory, Kitt Peak-Spacewatch MPS 185658
2006 10 31.30181 02 05 25.93 +19 29 30.0   691 – Steward Observatory, Kitt Peak-Spacewatch MPS 185658
2006 11 18.23676 01 51 08.78 +18 49 27.7 20.9 V G96 – Mt. Lemmon Survey MPS 188792
2006 11 18.24338 01 51 08.53 +18 49 27.0 20.8 V G96 – Mt. Lemmon Survey MPS 188792
2006 11 18.25012 01 51 08.28 +18 49 26.2 21.2 V G96 – Mt. Lemmon Survey MPS 188792
2006 11 18.25685 01 51 07.95 +18 49 25.3 21.0 V G96 – Mt. Lemmon Survey MPS 188792
2010 02 13.473927 15 23 12.25 -23 09 59.9   C51 – WISE MPS 313325
2010 02 13.606231 15 23 18.47 -23 10 51.9   C51 – WISE MPS 313326
2010 02 13.73866 15 23 24.67 -23 11 44.1   C51 – WISE MPS 330811
2010 02 13.870966 15 23 30.87 -23 12 36.3   C51 – WISE MPS 330811
2010 02 13.937056 15 23 34.02 -23 13 03.2   C51 – WISE MPS 313326
2010 02 14.003271 15 23 37.15 -23 13 29.2   C51 – WISE MPS 330811
2010 02 14.135575 15 23 43.38 -23 14 19.6   C51 – WISE MPS 330811
2010 02 14.466399 15 23 58.77 -23 16 30.0   C51 – WISE MPS 313326
2010 02 14.598831 15 24 04.74 -23 17 19.8   C51 – WISE MPS 313326
2010 02 14.731135 15 24 10.78 -23 18 13.2   C51 – WISE MPS 313326
2010 08 06.62171 14 56 05.90 -28 00 41.0   C51 – WISE MPS 344924
2010 08 07.01849 14 56 25.84 -28 01 19.4   C51 – WISE MPS 344924
2010 08 07.01862 14 56 25.83 -28 01 19.9   C51 – WISE MPS 344924
2010 08 07.15080 14 56 32.49 -28 01 30.5   C51 – WISE MPS 344924
2010 08 07.15092 14 56 32.52 -28 01 31.5   C51 – WISE MPS 344924
2010 08 07.21701 14 56 35.89 -28 01 37.8   C51 – WISE MPS 344924
2010 08 07.28310 14 56 39.20 -28 01 43.6   C51 – WISE MPS 344924
2010 08 07.34932 14 56 42.57 -28 01 49.7   C51 – WISE MPS 344924
2010 08 07.41541 14 56 45.95 -28 01 56.4   C51 – WISE MPS 344924
2010 08 07.48162 14 56 49.33 -28 02 02.6   C51 – WISE MPS 344924
2010 08 07.61392 14 56 56.09 -28 02 15.9   C51 – WISE MPS 344924
2011 09 18.43523 22 52 09.499 -16 34 50.87 19.6 i F51 – Pan-STARRS 1, Haleakala MPS 394119
2011 09 18.44646 22 52 08.941 -16 34 50.82 19.5 i F51 – Pan-STARRS 1, Haleakala MPS 394119
2012 10 11.600179 04 02 22.377 +30 06 38.94 20.8 i F51 – Pan-STARRS 1, Haleakala MPS 437661
2012 10 11.614303 04 02 21.997 +30 06 41.55 20.7 i F51 – Pan-STARRS 1, Haleakala MPS 437661
2012 10 19.99644 03 57 59.30 +30 28 00.2 19.6 R 461 – University of Szeged, Piszkesteto Stn. (Konkol MPS 439319
2012 10 20.00752 03 57 58.86 +30 28 01.4 19.6 R 461 – University of Szeged, Piszkesteto Stn. (Konkol MPS 439319
2012 10 20.01859 03 57 58.51 +30 28 03.3 19.7 R 461 – University of Szeged, Piszkesteto Stn. (Konkol MPS 439319
2012 10 22.547809 03 56 21.158 +30 33 11.21 21.4 w F51 – Pan-STARRS 1, Haleakala MPS 439319
2012 10 22.562313 03 56 20.556 +30 33 12.89 21.4 w F51 – Pan-STARRS 1, Haleakala MPS 439319
2012 10 22.576802 03 56 19.956 +30 33 14.36 21.4 w F51 – Pan-STARRS 1, Haleakala MPS 439319
2012 10 22.591293 03 56 19.357 +30 33 15.81 21.5 w F51 – Pan-STARRS 1, Haleakala MPS 439319
2012 11 03.570520 03 47 05.190 +30 47 59.82 20.5 i F51 – Pan-STARRS 1, Haleakala MPS 441422
2012 11 03.582440 03 47 04.573 +30 47 59.98 20.4 i F51 – Pan-STARRS 1, Haleakala MPS 441422
2013 01 14.13311 03 03 15.80 +28 32 46.0 22.5 V G96 – Mt. Lemmon Survey MPS 452135
2013 01 14.14392 03 03 15.80 +28 32 45.0 22.2 V G96 – Mt. Lemmon Survey MPS 452135
2013 01 14.15474 03 03 15.84 +28 32 43.9 21.1 V G96 – Mt. Lemmon Survey MPS 452135
2013 01 14.16550 03 03 15.87 +28 32 42.3 21.5 V G96 – Mt. Lemmon Survey MPS 452135
2014 02 24.25636 07 39 47.606 +35 18 28.74 21.2 w F51 – Pan-STARRS 1, Haleakala MPS 503741
2014 02 24.26937 07 39 47.209 +35 18 26.63 21.0 w F51 – Pan-STARRS 1, Haleakala MPS 503741
2014 02 24.28241 07 39 46.841 +35 18 24.72 21.0 w F51 – Pan-STARRS 1, Haleakala MPS 503741
2015 01 19.58129 12 22 16.744 +03 48 06.49 21.8 w F51 – Pan-STARRS 1, Haleakala MPS 566717
2015 01 19.59487 12 22 16.844 +03 48 04.94 21.5 w F51 – Pan-STARRS 1, Haleakala MPS 566717
2015 01 19.62188 12 22 16.984 +03 48 03.38 21.6 w F51 – Pan-STARRS 1, Haleakala MPS 566717
2015 02 18.53316 12 16 02.507 +04 05 17.49 20.7 w F51 – Pan-STARRS 1, Haleakala MPS 582780
2015 02 18.54564 12 16 02.112 +04 05 18.87 20.7 w F51 – Pan-STARRS 1, Haleakala MPS 582780
2015 02 18.57059 12 16 01.316 +04 05 21.75 20.5 w F51 – Pan-STARRS 1, Haleakala MPS 582780
2015 02 19.50563 12 15 32.480 +04 07 12.39 20.9 w F51 – Pan-STARRS 1, Haleakala MPS 582780
2015 02 19.51806 12 15 32.073 +04 07 13.91 20.9 w F51 – Pan-STARRS 1, Haleakala MPS 582780
2015 02 19.53055 12 15 31.664 +04 07 15.28 20.9 w F51 – Pan-STARRS 1, Haleakala MPS 582780
2015 02 19.54302 12 15 31.256 +04 07 16.88 20.9 w F51 – Pan-STARRS 1, Haleakala MPS 582780
2015 03 14.18550 11 59 55.33 +05 04 02.0 20.3 V 691 – Steward Observatory, Kitt Peak-Spacewatch MPS 591626
2015 03 14.20442 11 59 54.42 +05 04 05.3 20.3 V 691 – Steward Observatory, Kitt Peak-Spacewatch MPS 591626
2015 03 14.22333 11 59 53.56 +05 04 05.6 19.8 V 691 – Steward Observatory, Kitt Peak-Spacewatch MPS 591626
